Regional Weather Roundup
Issued by NWS

Home | Current Version | Previous Version | Graphics & Text | Print | Product List | Glossary On
Versions: 1 2 3 4 5 6 7 8 9 10 11 12 13 14 15 16 17 18 19 20 21 22 23 24 25 26 27 28 29 30 31 32 33 34 35 36 37 38 39 40 41 42 43 44 45 46 47 48 49 50
000
ASUS43 KLOT 201508
RWRIL

ILLINOIS REGIONAL WEATHER ROUNDUP
NATIONAL WEATHER SERVICE CHICAGO/ROMEOVILLE IL
900 AM CST FRI JAN 20 2017

NOTE: "FAIR" INDICATES FEW OR NO CLOUDS BELOW 12,000 FEET WITH NO
SIGNIFICANT WEATHER AND/OR OBSTRUCTIONS TO VISIBILITY.

* THESE STATIONS ARE NOT UNDER NWS QUALITY CONTROL. THEY ALSO MAY NOT
  REPORT WEATHER SUCH AS PRECIPITATION OR FOG.

ILZ001-002-007-009-015-016-024-201600-
NORTHWEST ILLINOIS

CITY           SKY/WX    TMP DP  RH WIND       PRES   REMARKS
MOLINE         FOG       38  37  97 CALM      29.64R VSB 1
STERLING*      CLOUDY    37  37 100 CALM      29.66R FOG
SAVANNA*       CLOUDY    37  37  97 E5        29.64S FOG     WCI  34
$$

ILZ003-004-008-010-011-017-018-201600-
NORTH CENTRAL ILLINOIS

CITY           SKY/WX    TMP DP  RH WIND       PRES   REMARKS
ROCKFORD       CLOUDY    39  37  92 CALM      29.66R FOG
FREEPORT*      FOG       36  35  99 NE5       29.66R VSB 1/4 WCI  32
ROCHELLE*      CLOUDY    37  37 100 NE3       29.64S FOG
DE KALB*       CLOUDY    38  38  99 NE7       29.64S FOG     WCI  33
$$

ILZ005-006-012>014-019>023-201600-
NORTHEAST ILLINOIS

CITY           SKY/WX    TMP DP  RH WIND       PRES   REMARKS
CHICAGO-OHARE  CLOUDY    39  38  96 NE5       29.64R FOG
CHICAGO-MIDWAY CLOUDY    38  37  97 E5        29.65R FOG     WCI  34
AURORA         CLOUDY    40  38  93 NE7       29.63S FOG
LANSING*       FOG       38  38 100 CALM      29.65R VSB 3/4
JOLIET*        CLOUDY    40  40  99 NE3       29.64S FOG
WAUKEGAN       FOG       37  37 100 NE6       29.64R VSB 3/4 WCI  32
DUPAGE AIRPORT CLOUDY    39  37  92 E5        29.63S FOG
KANKAKEE*      CLOUDY    38  38  97 CALM      29.64R FOG
WHEELING       CLOUDY    38  37  97 E3        29.65R FOG
MORRIS*        CLOUDY    38  37  97 CALM      29.62R FOG
ROMEOVILLE*    FOG       38  38 100 NE7       29.63S VSB 3/4 WCI  33
NORTHERLY ISL    N/A     36  36 100 CALM        N/A
$$

LMZ740>746-201600-
SOUTHERN LAKE MICHIGAN

STATION/POSITION SKY/WX   TEMP    WIND        PRES    VSBY  WAVE
                          AIR SEA DIR/SP/G                  HT/PER
                          (F)     (DEG/KT/KT) (MB)    (MI)  (FT/S)
HARRISON CRIB              38      70/  6/  6   N/A
BURNHAM HARBOR             37      60/  3       N/A
CALUMET HARBOR             36      CALM  /  1 1003.6R
BURNS HARBOR               35      80/  4/  6 1004.4R
MICHIGAN CITY              34      40/  7/  8   N/A
$$

ILZ025>027-034>036-040-047-049-050-058-095>099-201600-
WEST-CENTRAL ILLINOIS

CITY           SKY/WX    TMP DP  RH WIND       PRES   REMARKS
QUINCY         FOG       44  44 100 S7        29.64R VSB 1/4
GALESBURG*     CLOUDY    37  37 100 E3        29.64F FOG
MACOMB*        FOG       37  37 100 E3        29.66F VSB 1/2
JACKSONVILLE*  CLOUDY    43  43 100 CALM      29.66R FOG
PITTSFIELD*    CLOUDY    44  44 100 CALM      29.66R FOG
$$

ILZ028>032-037-038-041>044-048-051>054-059>061-201600-
CENTRAL ILLINOIS

CITY           SKY/WX    TMP DP  RH WIND       PRES   REMARKS
PONTIAC        FOG       38  38 100 CALM      29.66R VSB 1/4
BLOOMINGTON    FOG       42  41  96 SW9       29.66R VSB 1/4
DECATUR        HAZE      45  33  63 SW5       29.67R VSB 3/4
PEORIA         FOG       39  39 100 SW6       29.67R VSB 3/4 WCI  35
LACON*         FOG       37  37 100 CALM      29.65R VSB 3/4
LINCOLN*       CLOUDY    43  43 100 CALM      29.65F FOG
SPRINGFIELD    FOG       45  44  97 SW3       29.67S VSB 1/2
TAYLORVILLE    FOG       45  45 100 S3        29.67R VSB 1/2
$$

ILZ033-039-045-046-055>057-062-063-201600-
EAST-CENTRAL ILLINOIS

CITY           SKY/WX    TMP DP  RH WIND       PRES   REMARKS
CHAMPAIGN      FOG       44  43  96 SW9       29.68R VSB 1/2
RANTOUL*       FOG       45  44  99 SW6       29.66R VSB 1/4
MATTOON        FOG       46  46 100 S6        29.67R VSB 1/2
PARIS*         CLOUDY    46  46 100 SW9       29.70R FOG
$$

ILZ079-100>102-201600-
SOUTHWEST ILLINOIS

CITY           SKY/WX    TMP DP  RH WIND       PRES   REMARKS
ALTON          CLOUDY    46  46 100 SE6       29.67R FOG
BELLEVILLE     CLOUDY    49  49 100 CALM      29.67R
CAHOKIA*       CLOUDY    48  46  93 S5        29.67R
SPARTA*        CLOUDY    49  47  93 S7        29.71R
$$

ILZ064>066-069>071-074>076-080>082-084>086-088>090-092>094-201600-
SOUTH-CENTRAL ILLINOIS

CITY           SKY/WX    TMP DP  RH WIND       PRES   REMARKS
CARBONDALE     CLOUDY    52  49  89 SW6       29.71R
CAIRO*         CLOUDY    53  52  97 S6        29.73R
EFFINGHAM*     FOG       47  47 100 CALM      29.70R VSB 1/4
MARION         CLOUDY    54  52  94 SW5       29.72R
MT. VERNON     CLOUDY    51  49  92 SW9       29.71R
CENTRALIA*     CLOUDY    51  50  97 S9        29.70R
SALEM*         CLOUDY    51  49  94 S7        29.70R
METROPOLIS*    CLOUDY    55  51  87 CALM      29.74R
$$

ILZ067-068-072-073-078-083-087-091-201600-
SOUTHEAST ILLINOIS

CITY           SKY/WX    TMP DP  RH WIND       PRES   REMARKS
LAWRENCEVILLE  CLOUDY    53  52  96 SW13      29.71R
FLORA*         CLOUDY    52  51  96 SW9       29.72R
FAIRFIELD*     CLOUDY    52  49  91 S7        29.71R
HARRISBURG*    CLOUDY    53  49  87 S6        29.73R
ROBINSON*      CLOUDY    50  49  99 SW9       29.71R FOG
CARMI*         CLOUDY    53  48  84 SW14      29.72R
$$

ABBREVIATIONS USED IN REMARKS
   TC - TEMPERATURE IN CELSIUS
  WCI - WIND CHILL INDEX
   HX - HEAT INDEX
  VSB - VISIBILITY
$$





USA.gov is the U.S. government's official web portal to all federal, state and local government web resources and services.